Terminal Aerodrome Forecast
Issued by NWS

Home | Current Version | Previous Version | Text Only | Print | Product List | Glossary On
Versions: 1 2 3 4 5 6 7 8 9 10 11 12 13 14 15 16 17 18 19
000
FTUS41 KCAR 192326
TAFBHB
TAF
KBHB 192326Z 2000/2024 36006KT P6SM SCT025
      TEMPO 2000/2001 BKN025
     FM200100 36004KT P6SM SKC
     FM201500 02006KT P6SM SCT050
      AMD LTD TO CLD VIS AND WIND=

USA.gov is the U.S. government's official web portal to all federal, state and local government web resources and services.